This is the latest recevied weather packets stored in our database for station/object K1PM-WX. If no packets are shown the sender has not sent any weather packets the latest 10 day(s).
| Time | Temp. | Humidity | Pressure | Rain* | Wind** | Luminosity | Snow |
|---|---|---|---|---|---|---|---|
| 1777480437 | 10° C | 96% | 1032 hPa | 2.54 mm | - | - | - |
| 1777480137 | 10° C | 96% | 1032 hPa | 2.29 mm | - | - | - |
| 1777479837 | 10° C | 96% | 1032 hPa | 2.03 mm | - | - | - |
| 1777479537 | 10.56° C | 96% | 1032 hPa | 2.03 mm | - | - | - |
| 1777479237 | 10.56° C | 95% | 1032 hPa | 2.03 mm | - | - | - |
| 1777478937 | 10° C | 95% | 1033 hPa | 1.78 mm | - | - | - |
| 1777478638 | 10° C | 94% | 1033 hPa | 1.52 mm | - | - | - |
| 1777478337 | 10° C | 93% | 1032 hPa | 1.27 mm | - | - | - |
| 1777478038 | 10° C | 92% | 1033 hPa | 1.02 mm | - | - | - |
| 1777477736 | 10.56° C | 90% | 1033 hPa | 0.51 mm | - | - | - |
| 1777477437 | 10.56° C | 89% | 1034 hPa | 0 mm | - | - | - |
| 1777477137 | 10.56° C | 88% | 1033 hPa | 0 mm | - | - | - |
| 1777476838 | 11.11° C | 86% | 1033 hPa | 0 mm | - | - | - |
| 1777476538 | 11.67° C | 85% | 1033 hPa | 0 mm | - | - | - |
| 1777476237 | 11.67° C | 84% | 1033 hPa | 0 mm | - | - | - |
| 1777475937 | 11.67° C | 83% | 1033 hPa | 0 mm | - | - | - |
| 1777475637 | 12.22° C | 83% | 1033 hPa | 0 mm | - | - | - |
| 1777475337 | 12.22° C | 81% | 1033 hPa | 0 mm | - | - | - |
| 1777475037 | 12.78° C | 81% | 1033 hPa | 0 mm | - | - | - |
| 1777474737 | 13.33° C | 82% | 1033 hPa | 0 mm | - | - | - |
| 1777474438 | 12.78° C | 82% | 1033 hPa | 0 mm | - | - | - |
| 1777474137 | 12.78° C | 82% | 1033 hPa | 0 mm | - | - | - |
| 1777473837 | 12.78° C | 82% | 1033 hPa | 0 mm | - | - | - |
| 1777473537 | 12.78° C | 82% | 1034 hPa | 0 mm | - | - | - |
| 1777473236 | 12.78° C | 82% | 1034 hPa | 0 mm | - | - | - |
* Rain latest hour (hover to see other rain measurements)
** Current wind speed in m/s (hover to see current wind gust speed)